Date String (YYYY-MM-DD hh:mm:ss) UTC,Instrument flags,Ambient pressure (hPa),Sample flow (lpm),Bypass flow (lpm),Sample temperature (°C),Ambient temperature (°C),ASC tube jacket temperature (°C),LED temperature (°C),Box temperature (°C),Sample RH (%),Span deviation,Mass concentration (μg/m³),Mass concentration (μg/m³),Mass concentration (μg/m³)
DateTimeUTC,F1_M11,P_M11,Q1_M11,Q2_M11,T1_M11,T2_M11,T3_M11,T4_M11,T5_M11,U1_M11,ZSPAN_M11,X0_M11,X2_M11,X1_M11
2021-09-09 09:00:00,,0830.7,5.00,0.00,29.7,28.4,00.0,38.9,31.4,17.6,0001.4,0039.39,0026.08,0024.18
2021-09-09 09:01:00,,0830.7,5.00,0.00,29.7,28.5,00.0,38.9,31.5,17.6,0001.6,0039.20,0026.02,0024.13
2021-09-09 09:02:00,,0830.7,5.00,0.00,29.8,28.6,00.0,38.9,31.5,17.5,0001.5,0038.32,0026.05,0024.13
2021-09-09 09:03:00,,0830.8,5.00,0.00,29.8,28.6,00.0,38.9,31.5,17.5,0001.5,0039.40,0026.04,0024.14
2021-09-09 09:04:00,,0830.8,5.00,0.00,29.8,28.6,00.0,38.9,31.5,17.5,0001.4,0039.74,0026.02,0024.13
2021-09-09 09:05:00,,0830.8,5.00,0.00,29.8,28.7,00.0,38.9,31.5,17.5,0001.4,0039.90,0026.03,0024.11
2021-09-09 09:06:00,,0830.8,5.00,0.00,29.8,28.7,00.0,38.9,31.5,17.5,0001.6,0039.13,0026.04,0024.11
2021-09-09 09:07:00,,0830.8,4.99,0.00,29.9,28.7,00.0,38.9,31.6,17.5,0001.7,0038.96,0026.06,0024.08
2021-09-09 09:08:00,,0830.8,5.00,0.00,29.9,28.8,00.0,38.9,31.6,17.4,0002.3,0039.10,0026.07,0024.09
2021-09-09 09:09:00,,0830.8,5.01,0.00,29.9,28.8,00.0,39.0,31.6,17.4,0002.5,0039.52,0026.05,0024.09
2021-09-09 09:10:00,,0830.8,5.00,0.00,29.9,28.8,00.0,39.0,31.7,17.4,0002.3,0039.55,0026.05,0024.07
2021-09-09 09:11:00,,0830.8,5.00,0.00,29.9,28.9,00.0,39.0,31.7,17.6,0002.4,0040.65,0026.00,0024.04
2021-09-09 09:12:00,,0830.8,5.00,0.00,29.9,28.9,00.0,39.0,31.7,17.6,0002.3,0041.13,0026.01,0024.01
2021-09-09 09:13:00,,0830.7,5.00,0.00,30.0,28.9,00.0,39.0,31.7,17.5,0002.3,0041.65,0025.95,0023.95
2021-09-09 09:14:00,,0830.7,5.00,0.00,30.0,28.9,00.0,39.0,31.8,17.4,0002.4,0041.46,0025.98,0023.90
2021-09-09 09:15:00,,0830.7,5.01,0.00,30.0,28.9,00.0,39.0,31.8,17.3,0002.4,0040.95,0025.92,0023.83
2021-09-09 09:16:00,,0830.7,4.99,0.00,30.0,29.0,00.0,39.1,31.8,17.3,0002.6,0040.88,0025.83,0023.79
2021-09-09 09:17:00,,0830.8,5.00,0.00,30.0,29.0,00.0,39.1,31.8,17.3,0002.6,0041.40,0025.75,0023.73
2021-09-09 09:18:00,,0830.8,5.00,0.00,30.1,29.0,00.0,39.1,31.8,17.3,0002.4,0041.17,0025.71,0023.72
2021-09-09 09:19:00,,0830.7,5.01,0.00,30.1,29.0,00.0,39.1,31.8,17.3,0001.9,0040.75,0025.63,0023.68
2021-09-09 09:20:00,,0830.8,4.99,0.00,30.1,29.0,00.0,39.1,31.8,17.2,0001.8,0040.74,0025.61,0023.66
2021-09-09 09:21:00,,0830.8,5.00,0.00,30.1,29.0,00.0,39.1,31.8,17.2,0002.0,0040.27,0025.58,0023.66
2021-09-09 09:22:00,,0830.8,5.01,0.00,30.1,29.0,00.0,39.1,31.8,17.3,0002.0,0038.85,0025.56,0023.67
2021-09-09 09:23:00,,0830.7,5.00,0.00,30.1,29.1,00.0,39.2,31.9,17.3,0002.2,0038.71,0025.55,0023.67
2021-09-09 09:24:00,,0830.8,5.01,0.00,30.1,29.1,00.0,39.2,31.9,17.2,0002.4,0038.85,0025.60,0023.66
2021-09-09 09:25:00,,0830.7,5.00,0.00,30.1,29.1,00.0,39.2,31.9,17.2,0002.3,0038.26,0025.57,0023.65
2021-09-09 09:26:00,,0830.8,5.00,0.00,30.2,29.1,00.0,39.2,31.9,17.1,0002.4,0038.17,0025.54,0023.63
2021-09-09 09:27:00,,0830.7,5.00,0.00,30.2,29.1,00.0,39.2,31.9,17.0,0002.3,0040.60,0025.56,0023.67
2021-09-09 09:28:00,,0830.8,4.99,0.00,30.2,29.1,00.0,39.2,31.9,17.1,0002.3,0040.23,0025.61,0023.73
2021-09-09 09:29:00,,0830.8,5.00,0.00,30.2,29.1,00.0,39.2,31.9,17.0,0002.4,0039.81,0025.50,0023.70
2021-09-09 09:30:00,,0830.7,5.00,0.00,30.2,29.1,00.0,39.3,31.9,17.0,0002.6,0039.91,0025.44,0023.69
2021-09-09 09:31:00,,0830.7,5.01,0.00,30.2,29.1,00.0,39.3,31.9,16.9,0002.3,0039.34,0025.50,0023.74
2021-09-09 09:32:00,,0830.7,4.99,0.00,30.2,29.2,00.0,39.3,32.0,17.0,0002.2,0039.32,0025.48,0023.71
2021-09-09 09:33:00,,0830.8,5.00,0.00,30.2,29.2,00.0,39.3,32.0,17.0,0002.4,0039.25,0025.50,0023.73
2021-09-09 09:34:00,,0830.8,5.01,0.00,30.2,29.2,00.0,39.3,32.0,17.1,0002.4,0038.93,0025.50,0023.74
2021-09-09 09:35:00,,0830.8,5.01,0.00,30.3,29.2,00.0,39.3,32.0,17.0,0002.4,0038.15,0025.45,0023.74
2021-09-09 09:36:00,,0830.7,5.00,0.00,30.2,27.8,00.0,39.3,31.6,16.9,0002.6,0037.86,0025.48,0023.76
2021-09-09 09:37:00,,0830.8,5.00,0.00,30.0,26.2,00.0,39.3,31.1,17.0,0002.6,0037.83,0025.57,0023.80
2021-09-09 09:38:00,,0830.8,5.00,0.00,29.9,26.2,00.0,39.2,31.1,17.2,0002.6,0035.80,0025.68,0023.79
2021-09-09 09:39:00,,0830.8,5.01,0.00,29.8,26.6,00.0,39.2,31.1,17.2,0002.7,0036.39,0025.71,0023.74
2021-09-09 09:40:00,,0830.8,4.98,0.00,29.7,27.0,00.0,39.1,31.2,17.4,0002.6,0036.67,0025.78,0023.69
2021-09-09 09:41:00,,0830.7,5.00,0.00,29.7,27.4,00.0,39.1,31.3,17.3,0002.4,0036.35,0025.76,0023.64
2021-09-09 09:42:00,,0830.8,5.00,0.00,29.7,27.7,00.0,39.0,31.3,17.3,0002.5,0036.19,0025.61,0023.52
2021-09-09 09:43:00,,0830.8,5.01,0.00,29.7,27.9,00.0,39.0,31.4,17.3,0002.4,0036.54,0025.61,0023.49
2021-09-09 09:44:00,,0830.8,4.99,0.00,29.8,28.1,00.0,39.0,31.4,17.3,0002.2,0037.29,0025.53,0023.41
2021-09-09 09:45:00,,0830.8,5.00,0.00,29.8,28.3,00.0,39.0,31.4,17.4,0002.0,0038.52,0025.43,0023.32
2021-09-09 09:46:00,,0830.8,5.01,0.00,29.8,28.4,00.0,39.0,31.5,17.4,0001.9,0038.75,0025.30,0023.21
2021-09-09 09:47:00,,0830.7,5.00,0.00,29.8,28.5,00.0,39.0,31.5,17.4,0001.5,0038.40,0025.12,0023.10
2021-09-09 09:48:00,,0830.8,5.00,0.00,29.8,28.6,00.0,39.0,31.5,17.4,0001.4,0038.38,0025.00,0023.00
2021-09-09 09:49:00,,0830.8,4.99,0.00,29.8,28.6,00.0,39.0,31.5,17.5,0001.3,0039.50,0024.85,0022.90
2021-09-09 09:50:00,,0830.7,5.01,0.00,29.9,28.7,00.0,39.0,31.6,17.4,0001.3,0038.84,0024.70,0022.82
2021-09-09 09:51:00,,0830.8,5.01,0.00,29.9,28.7,00.0,39.0,31.6,17.3,0001.7,0038.78,0024.56,0022.77
2021-09-09 09:52:00,,0830.8,4.99,0.00,29.9,28.8,00.0,39.0,31.6,17.2,0001.8,0038.55,0024.49,0022.73
2021-09-09 09:53:00,,0830.8,5.01,0.00,29.9,28.8,00.0,39.0,31.7,17.1,0001.7,0040.28,0024.55,0022.74
2021-09-09 09:54:00,,0830.8,5.00,0.00,29.9,28.8,00.0,39.0,31.7,17.1,0001.7,0040.13,0024.52,0022.71
2021-09-09 09:55:00,,0830.8,5.00,0.00,30.0,28.9,00.0,39.0,31.7,17.2,0001.8,0039.47,0024.43,0022.62
2021-09-09 09:56:00,,0830.8,5.00,0.00,30.0,28.9,00.0,39.0,31.7,17.0,0001.7,0037.93,0024.39,0022.58
2021-09-09 09:57:00,,0830.8,5.00,0.00,30.0,28.9,00.0,39.1,31.7,17.0,0001.9,0037.34,0024.42,0022.57
2021-09-09 09:58:00,,0830.8,4.99,0.00,30.0,28.9,00.0,39.1,31.7,17.1,0002.2,0037.63,0024.49,0022.60
2021-09-09 09:59:00,,0830.8,5.02,0.00,30.0,29.0,00.0,39.1,31.7,17.0,0002.3,0037.35,0024.51,0022.61
